Terug naar catalogus

STARLINK-30791

ActiefCommunicatieVLEO
NORAD 58177·PAYLOAD·🇺🇸 United States

Gelanceerd Oct 30, 2023 vanaf Cape Canaveral Space Force Station

Loading…

Volgende Passages (komende 24 uur)

TLE

VersSource: CelesTrak SupGP

Epoch: Sep 15, 2026, 02:02 UTC

1 58177C 23167C   26258.08520833  .00048035  00000+0  17407-2 0  2587
2 58177  43.0009 153.5664 0001489 285.8656  65.9841 15.27538865    12

Volg STARLINK-30791 in realtime met AllMySat

Download on the App Store